Regional Weather Roundup
Issued by NWS

Home | Current Version | Previous Version | Text Only | Print | Product List | Glossary Off
Versions: 1 2 3 4 5 6 7 8 9 10 11 12 13 14 15 16 17 18 19 20 21 22 23 24 25 26 27 28 29 30 31 32 33 34 35 36 37 38 39 40 41 42 43 44 45 46 47 48 49 50

000
ASUS45 KPSR 191000
RWRAZ

PRELIMINARY ARIZONA REGIONAL HOURLY WEATHER ROUNDUP
NATIONAL WEATHER SERVICE PHOENIX AZ
300 AM MST SAT APR 19 2014

NOTE: FAIR INDICATES FEW OR NO CLOUDS BELOW 12,000 FEET WITH NO
SIGNIFICANT WEATHER AND/OR OBSTRUCTIONS TO VISIBILITY.

AZZ001>003-036-191100-
NORTHWEST ARIZONA

CITY           SKY/WX    TMP DP  RH WIND       PRES   REMARKS
KINGMAN        CLOUDY    56  46  69 SE9       29.98F
$$

AZZ004>008-015-016-018-191100-
NORTH CENTRAL ARIZONA

CITY           SKY/WX    TMP DP  RH WIND       PRES   REMARKS
GRAND CANYON   CLOUDY    42  40  92 CALM      30.11S
WILLIAMS       FAIR      37  36  93 CALM      30.17R
PRESCOTT       FAIR      43  40  89 S3        30.03F
FLAGSTAFF      FAIR      33  31  92 CALM      30.10F
PAYSON         FAIR      48  37  66 NE3       30.06S
PAGE           CLOUDY    58  39  49 S9        30.02R
$$

AZZ009>014-017-191100-
NORTHEAST ARIZONA

CITY           SKY/WX    TMP DP  RH WIND       PRES   REMARKS
WINSLOW        NOT AVBL
SAINT JOHNS    FAIR      40  38  93 S3        30.08S
WINDOW ROCK    FAIR      35  30  82 CALM      30.13S
SHOW LOW       FAIR      32  27  80 CALM      30.12S
$$

AZZ023-191100-
GREATER PHOENIX AREA

CITY           SKY/WX    TMP DP  RH WIND       PRES   REMARKS
PHOENIX        FAIR      67  44  43 CALM      29.85F
LUKE AFB       NOT AVBL
DEER VALLEY    FAIR      64  39  39 CALM      29.87F
SCOTTSDALE     FAIR      63  44  50 W5        29.88F
$$

AZZ027-028-191100-
SOUTHWEST MARICOPA COUNTY AND PINAL COUNTY

CITY           SKY/WX    TMP DP  RH WIND       PRES   REMARKS
CASA GRANDE    FAIR      63  39  42 CALM      29.89R
$$

AZZ503-504-507>509-191100-
SOUTHEAST ARIZONA

CITY           SKY/WX    TMP DP  RH WIND       PRES   REMARKS
TUCSON         FAIR      63  43  48 CALM      29.94F
DAVIS-MONTHAN  FAIR      61  46  57 SE7       29.93S
NOGALES        FAIR      53  41  63 E7        29.97F
SIERRA VISTA   FAIR      55  46  71 CALM      30.02S
DOUGLAS        FAIR      50  46  87 NW6       30.01S
SAFFORD        FAIR      54  46  74 SW7       29.96R
$$

AZZ020-021-025-026-031-191100-
SOUTHWEST ARIZONA

CITY           SKY/WX    TMP DP  RH WIND       PRES   REMARKS
YUMA           FAIR      67  47  48 NE7       29.82F
$$

CAZ031-033-041-043-047-048-061-191100-
SOUTHERN CALIFORNIA

CITY           SKY/WX    TMP DP  RH WIND       PRES   REMARKS
DOWNTOWN L.A.  FAIR      61  52  72 CALM      29.94S
L.A. AIRPORT   FAIR      59  53  80 CALM      29.94F
SAN DIEGO      CLOUDY    65  51  60 CALM      29.94F
BURBANK        FAIR      58  50  75 CALM      29.93F
ONTARIO        FAIR      56  50  80 NW3       29.94F
RIVERSIDE      FAIR      57  51  80 CALM      29.95S
PALM SPRINGS   FAIR      68  50  52 NW7       29.88S
EL CENTRO NAS  FAIR      63  53  70 SE3       29.81S
IMPERIAL       FAIR      67  51  56 E3        29.81S
BLYTHE         MOCLDY    70  47  43 NW7       29.86S
$$

NVZ020-UTZ003-191100-
SOUTHERN NEVADA-UTAH

CITY           SKY/WX    TMP DP  RH WIND       PRES   REMARKS
LAS VEGAS      NOT AVBL
SALT LAKE CITY MOCLDY    50  45  83 N3        29.97S
$$

NMZ009-TXZ055-191100-
NEW MEXICO-WEST TEXAS

CITY           SKY/WX    TMP DP  RH WIND       PRES   REMARKS
ALBUQUERQUE    CLOUDY    55  40  56 E6        30.09R
EL PASO        MOCLDY    63  47  55 CALM      29.99S
$$


........................KEY........................
SKY/WX - SKY CONDITION/WEATHER
TMP    - TEMPERATURE IN FAHRENHEIT
DP     - DEW POINT IN FAHRENHEIT
RH     - RELATIVE HUMIDITY IN PERCENT
WIND   - DIRECTION AND SPEED IN MILES PER HOUR (MPH)
VRB    - VARIABLE WIND DIRECTION
PRES   - MEAN SEA LEVEL PRESSURE IN INCHES OF MERCURY
         F - FALLING PRESSURE   R - RISING PRESSURE
         S - STEADY PRESSURE
VSB    - VISIBILITY IN MILES
HX     - HEAT INDEX IN FAHRENHEIT
WCI    - WIND CHILL INDEX IN FAHRENHEIT
TC     - TEMPERATURE IN CELSIUS WHICH IS ALSO KNOWN AS
         TEMPERATURE IN CENTIGRADE
AFB    - AIR FORCE BASE
         LUKE AFB IS LUKE AIR FORCE BASE
         DAVIS-MONTHAN IS DAVIS-MONTHAN AIR FORCE BASE
NAS    - NAVAL AIR STATION
         EL CENTRO NAS IS EL CENTRO NAVAL AIR STATION
N/A    - NOT AVAILABLE



USA.gov is the U.S. government's official web portal to all federal, state and local government web resources and services.